GW6099 Weather Reports


Display with metric or nautical units.
time (UTC)temp
F
wind
direction
speed
MPH
gust
MPH
rain 1hr
in
rain 24hr
in
rain mn
in
humidity
%
barometer
mb
20260906153005 92 141 0.0 5.0 0.00 0.00 0.00 58 1016.8
20260906151508 90 276 0.0 5.0 0.00 0.00 0.00 60 1016.6
20260906150019 88 204 0.0 2.0 0.00 0.00 0.00 64 1016.5
20260906144520 86 20 0.0 2.0 0.00 0.00 0.00 68 1016.8
20260906143031 84 315 0.0 2.0 0.00 0.00 0.00 70 1017.1
20260906141503 82 357 0.0 1.0 0.00 0.00 0.00 74 1017.2
20260906140012 80 29 0.0 1.0 0.00 0.00 0.00 78 1017.0
20260906134515 78 32 0.0 1.0 0.00 0.00 0.00 82 1016.8
20260906133023 78 146 0.0 1.0 0.00 0.00 0.00 86 1016.6
20260906131526 74 279 0.0 1.0 0.00 0.00 0.00 91 1016.6
20260906130015 72 127 0.0 0.0 0.00 0.00 0.00 95 1016.5
20260906124516 71 139 0.0 1.0 0.00 0.00 0.00 96 1016.4
20260906123026 69 158 0.0 0.0 0.00 0.00 0.00 96 1016.1
20260906121523 67 118 0.0 0.0 0.00 0.00 0.00 96 1016.1
20260906120030 67 117 0.0 0.0 0.00 0.00 0.00 96 1015.8
20260906114511 67 118 0.0 0.0 0.00 0.00 0.00 96 1015.7
20260906113027 67 118 0.0 0.0 0.00 0.00 0.00 95 1015.8
20260906111527 67 118 0.0 0.0 0.00 0.00 0.00 95 1015.7
20260906110029 67 118 0.0 0.0 0.00 0.00 0.00 95 1015.7
20260906104531 68 118 0.0 0.0 0.00 0.00 0.00 95 1015.7
20260906103034 68 118 0.0 0.0 0.00 0.00 0.00 95 1015.6
20260906101520 68 118 0.0 0.0 0.00 0.00 0.00 95 1015.5
20260906100026 68 118 0.0 0.0 0.00 0.00 0.00 95 1015.4
20260906094534 68 118 0.0 0.0 0.00 0.00 0.00 95 1015.3
20260906093033 68 118 0.0 0.0 0.00 0.00 0.00 95 1015.3
20260906091525 69 118 0.0 1.0 0.00 0.00 0.00 95 1015.2
20260906090025 68 117 0.0 0.0 0.00 0.00 0.00 94 1015.1
20260906084516 69 117 0.0 0.0 0.00 0.00 0.00 94 1015.0
20260906083014 69 117 0.0 0.0 0.00 0.00 0.00 94 1014.9
20260906081530 69 117 0.0 0.0 0.00 0.00 0.00 94 1014.7
20260906080023 69 117 0.0 0.0 0.00 0.00 0.00 94 1014.9
20260906074524 70 117 0.0 0.0 0.00 0.00 0.00 94 1014.8
20260906073008 70 117 0.0 1.0 0.00 0.00 0.00 93 1015.0
20260906071510 70 117 0.0 1.0 0.00 0.00 0.00 93 1015.1
20260906070017 70 113 0.0 0.0 0.00 0.00 0.00 93 1015.2
20260906064532 70 113 0.0 0.0 0.00 0.00 0.00 92 1015.4
20260906063030 71 113 0.0 0.0 0.00 0.00 0.00 93 1015.5
20260906061508 71 113 0.0 1.0 0.00 0.00 0.00 92 1015.4
20260906060015 71 161 0.0 1.0 0.00 0.00 0.00 92 1015.5
20260906054523 71 109 0.0 1.0 0.00 0.00 0.00 92 1015.4
20260906053030 72 135 0.0 0.0 0.00 0.00 0.00 92 1015.5
20260906051534 72 135 0.0 0.0 0.00 0.00 0.00 91 1015.3
20260906050026 72 135 0.0 0.0 0.00 0.00 0.00 91 1015.3
20260906044518 72 135 0.0 0.0 0.00 0.00 0.00 90 1015.4
20260906043023 73 136 0.0 0.0 0.00 0.00 0.00 90 1015.5
20260906041528 73 135 0.0 1.0 0.00 0.00 0.00 89 1015.5
20260906040038 73 134 1.0 1.0 0.00 0.00 0.00 88 1015.4
20260906034514 74 122 0.0 1.0 0.00 0.00 0.00 88 1015.3
20260906033025 74 121 0.0 1.0 0.00 0.00 0.00 87 1015.2
20260906031527 75 122 0.0 1.0 0.00 0.00 0.00 85 1015.3
20260906030032 75 122 0.0 0.0 0.00 0.00 0.00 83 1015.2
20260906024537 76 121 0.0 2.0 0.00 0.00 0.00 82 1014.9
20260906023018 77 124 1.0 2.0 0.00 0.00 0.00 81 1014.7
20260906021524 77 115 1.0 2.0 0.00 0.00 0.00 80 1014.5
20260906020031 78 141 1.0 3.0 0.00 0.00 0.00 78 1014.3
20260906014534 79 113 1.0 3.0 0.00 0.00 0.00 75 1014.3
20260906013033 80 158 0.0 0.0 0.00 0.00 0.00 69 1014.0
20260906011523 81 158 0.0 0.0 0.00 0.00 0.00 69 1013.8
20260906010024 82 159 0.0 1.0 0.00 0.00 0.00 68 1013.9
20260906004533 82 318 0.0 2.0 0.00 0.00 0.00 68 1013.7
20260906003030 83 124 0.0 4.0 0.00 0.00 0.00 66 1013.6
20260906001503 85 99 1.0 2.0 0.00 0.00 0.00 63 1013.5
20260906000004 87 205 1.0 2.0 0.00 0.00 0.00 57 1013.8
20260905234504 88 2 3.0 6.0 0.00 0.00 0.00 54 1013.8
20260905233012 91 152 0.0 2.0 0.00 0.00 0.00 50 1013.7
20260905231505 90 108 1.0 5.0 0.00 0.00 0.00 50 1013.6
20260905230008 91 86 3.0 5.0 0.00 0.00 0.00 47 1013.5
20260905224504 90 127 4.0 10.0 0.00 0.00 0.00 48 1013.5
20260905223004 93 84 7.0 17.0 0.00 0.00 0.00 46 1013.8
20260905221508 94 87 2.0 6.0 0.00 0.00 0.00 62 1013.5
20260905220009 91 120 3.0 5.0 0.00 0.00 0.00 64 1013.3
20260905214506 89 97 3.0 6.0 0.00 0.00 0.00 64 1013.5
20260905213004 86 122 3.0 4.0 0.00 0.00 0.00 63 1013.6
20260905211505 83 82 2.0 7.0 0.00 0.00 0.00 65 1013.7
20260905210011 83 113 8.0 29.0 0.00 0.00 0.00 56 1014.0
20260905204510 99 114 10.0 22.0 0.00 0.00 0.00 36 1014.0
20260905203014 102 248 0.0 7.0 0.00 0.00 0.00 32 1013.9
20260905201506 101 267 2.0 7.0 0.00 0.00 0.00 33 1014.0
20260905200009 101 70 2.0 6.0 0.00 0.00 0.00 33 1014.2
20260905194512 98 311 1.0 5.0 0.00 0.00 0.00 36 1014.5
20260905193025 100 35 3.0 8.0 0.00 0.00 0.00 35 1014.5
20260905191513 103 313 2.0 10.0 0.00 0.00 0.00 33 1014.8
20260905190012 103 99 3.0 6.0 0.00 0.00 0.00 32 1015.0
20260905184515 102 116 2.0 7.0 0.00 0.00 0.00 34 1015.3
20260905183019 100 203 3.0 5.0 0.00 0.00 0.00 36 1015.6
20260905181515 97 301 2.0 8.0 0.00 0.00 0.00 38 1015.7
20260905180017 98 46 1.0 10.0 0.00 0.00 0.00 38 1015.9
20260905174509 100 252 3.0 6.0 0.00 0.00 0.00 37 1016.1
20260905173011 98 167 2.0 5.0 0.00 0.00 0.00 38 1016.4
20260905171517 98 41 5.0 8.0 0.00 0.00 0.00 39 1016.5
20260905170021 98 290 2.0 5.0 0.00 0.00 0.00 39 1016.6
20260905164521 97 326 5.0 8.0 0.00 0.00 0.00 41 1016.8
20260905163023 96 73 0.0 6.0 0.00 0.00 0.00 43 1016.8
20260905161514 96 271 2.0 6.0 0.00 0.00 0.00 44 1017.1
20260905160027 94 353 2.0 5.0 0.00 0.00 0.00 47 1017.1
20260905154526 93 112 0.0 6.0 0.00 0.00 0.00 50 1017.2